Volver al catálogo

STARLINK-37580

ActivoComunicacionesVLEO
NORAD 100019·PAYLOAD·🇺🇸 United States

Lanzado Jul 14, 2026 desde Vandenberg Space Force Base

Loading…

Próximos Pases (próximas 24 horas)

TLE

ActualizadoSource: Space-Track

Época: Sep 14, 2026, 21:54 UTC

1 A0019U 26160U   26257.91319184 -.00996852  00000-0 -73908-2 0  9993
2 A0019  70.0021 210.6683 0007501 300.1094  59.9360 15.75300052 11112

Sigue STARLINK-37580 en tiempo real con AllMySat

Download on the App Store